Location: Melara
(45.0500°N, 11.1833°E)
Time: 02:44:46
(UTC+00:00)

Cosmos 1269 Rocket - Pass Details

Date: 26 May 2022
Orbit: 773 x 778 km, 74.1° (Epoch: 26 June)

Event Time Altitude Azimuth Distance (km) Brightness Sun altitude
Rises 00:44:05 0° 339° (NNW) 3,260 8.0 -20.6°
Reaches altitude 10° 00:46:29 10° 341° (NNW) 2,328 7.1 -20.5°
Maximum altitude 00:51:47 79° 68° (ENE) 792 4.1 -20.1°
Enters shadow 00:55:06 23° 153° (SSE) 1,583 5.3 -19.8°
